Regional Weather Roundup
Issued by NWS

Home | Current Version | Previous Version | Graphics & Text | Print | Product List | Glossary On
Versions: 1 2 3 4 5 6 7 8 9 10 11 12 13 14 15 16 17 18 19 20 21 22 23 24 25 26 27 28 29 30 31 32 33 34 35 36 37 38 39 40 41 42 43 44 45 46 47 48 49 50
000
ASUS45 KBOU 290310
RWRCO

WEATHER ROUNDUP FOR COLORADO
NATIONAL WEATHER SERVICE DENVER/BOULDER CO
900 PM MDT WED SEP 28 2016

NOTE: "FAIR" INDICATES FEW OR NO CLOUDS BELOW 12000 FEET WITH NO
SIGNIFICANT WEATHER AND/OR OBSTRUCTIONS TO VISIBILITY.

COZ001>005-013-030-031-290400-
...NORTHWEST COLORADO...

CITY           SKY/WX    TMP DP  RH WIND       PRES   REMARKS
CRAIG          FAIR      62  36  37 E3        30.30R
HAYDEN         MOCLDY    70  32  24 NE6G33    30.35R
MEEKER         FAIR      63  41  44 CALM      30.31R
MOUNT WERNER   NOT AVBL
STEAMBOAT SPGS FAIR      63  35  34 CALM      30.35R
WALDEN           N/A     55  27  33 SE10      30.45R
$$

COZ006>008-011-290400-
...WEST CENTRAL VALLEYS...

CITY           SKY/WX    TMP DP  RH WIND       PRES   REMARKS
GRAND JUNCTION FAIR      72  37  28 NE3       30.20R
MONTROSE       FAIR      65  43  44 S6        30.29R
EAGLE          MOCLDY    68  32  26 CALM      30.34R
RIFLE          FAIR      68  40  35 E3        30.23R
DELTA          MOCLDY    76  35  22 CALM      30.23R
NUCLA          MOCLDY    70  34  26 CALM      30.34R
$$

COZ017>023-064>068-290400-
...SOUTHWEST COLORADO...

CITY           SKY/WX    TMP DP  RH WIND       PRES   REMARKS
DURANGO        FAIR      64  36  35 E3        30.36R
CORTEZ         LGT RAIN  63  49  60 E8        30.31R
PAGOSA SPRINGS FAIR      56  35  46 CALM      30.44R
TELLURIDE      CLOUDY    59  31  33 CALM      30.53S
WOLF CREEK PAS CLOUDY    45  27  49 MISG      30.75R
$$

COZ009-010-012-014-032>034-037-058>063-290400-
...CENTRAL COLORADO...

CITY           SKY/WX    TMP DP  RH WIND       PRES   REMARKS
ASPEN          FAIR      58  29  33 S9        30.41R
BUENA VISTA    FAIR      60  27  28 SE3       30.50R
COPPER MTN     FAIR      52  25  35 S8        30.74R
BERTHOUD PASS  FAIR      37  27  65 E38G46    30.76R
COTTONWOOD PAS FAIR      59  23  25 SE10G24   30.62R
GUNNISON       CLOUDY    64  21  19 VRB5      30.42R
KREMMLING      FAIR      61  23  23 E9        30.41R
LEADVILLE      FAIR      51  24  34 SE6       30.59R
MONARCH PASS   FAIR      43  27  52 NE16      30.84R
SALIDA         FAIR      65  28  24 SE10G18   30.53R
SUNLIGHT       CLOUDY    55  27  33 W5        30.65S
WILKERSON PASS FAIR      46  23  39 S16       30.73S
$$

COZ069>075-290400-
...SAN LUIS VALLEY/SANGRE DE CRISTO MOUNTAINS...

CITY           SKY/WX    TMP DP  RH WIND       PRES   REMARKS
ALAMOSA        FAIR      58  26  29 SE10      30.44R
LA VETA PASS   FAIR      50  23  34 MISG      30.64R
SAGUACHE       NOT AVBL
$$

COZ035-036-038>040-290400-
...NORTHERN COLORADO FRONT RANGE...

CITY           SKY/WX    TMP DP  RH WIND       PRES   REMARKS
DENVER INTL AP FAIR      61  36  39 E12       30.34R
DMNS CITY PARK   N/A     65  33  30 NE5G10    30.33R
AURORA         PTCLDY    62  31  31 SE12      30.35R
FRONT RANGE AP PTCLDY    59  32  36 E12       30.36R
ERIE MUNI ARPT FAIR      63  34  33 N6        30.35R
BOULDER MUN AP FAIR      68  36  30 CALM      30.37R
CENTENNIAL     FAIR      60  31  33 S7        30.36R
BROOMFIELD     PTCLDY    66  36  32 NW9       30.38R
FORT COLLINS   FAIR      63  34  34 CALM      30.34R
LONGMONT       FAIR      66  36  32 SW3       30.38R
$$

COZ041-046-047-076>085-087-088-290400-
...PIKES PEAK/PALMER DIVIDE AND SOUTHERN FOOTHILLS...

CITY           SKY/WX    TMP DP  RH WIND       PRES   REMARKS
COLO. SPRINGS  FAIR      64  30  27 S7        30.41R
A. F. ACADEMY  FAIR      61  30  31 SE7       30.42R
SCHRIEVER AFB  NOT AVBL
ELLICOTT       NOT AVBL
FALCON         FAIR      57  30  35 S7        30.46R
FORT CARSON    FAIR      66  29  24 VRB7      30.37R
LIMON          FAIR      63  38  39 E14       30.38R
MONUMENT HILL  FAIR      55  30  38 S12       30.46R
TRINIDAD       FAIR      61  28  28 SE7       30.37R
$$

COZ042>045-048>051-090-091-290400-
...NORTHEAST COLORADO...

CITY           SKY/WX    TMP DP  RH WIND       PRES   REMARKS
GREELEY ARPT   FAIR      63  37  39 E8        30.34R
AKRON          FAIR      59  36  42 E9        30.35R
BURLINGTON     FAIR      60  42  51 E10       30.34R
WRAY           NOT AVBL
STERLING       FAIR      64  37  36 SE10      30.30S
HOLYOKE        FAIR      59  43  55 SE5       30.34R
FORT MORGAN    FAIR      57  35  44 E8        30.34R
$$

COZ086-089-092>099-290400-
...SOUTHEAST COLORADO...

CITY           SKY/WX    TMP DP  RH WIND       PRES   REMARKS
PUEBLO         FAIR      66  29  24 E5        30.30R
LA JUNTA       FAIR      67  36  31 E9        30.29R
LAMAR          FAIR      67  39  35 SE9       30.27R
SPRINGFIELD      N/A     60  38  43 E9        30.33R
$$



USA.gov is the U.S. government's official web portal to all federal, state and local government web resources and services.